Nebraska City, NE

12:11 AM CDT on September 22, 2017 (GMT -0500)
Nebraska City Municipal

Weather History for KAFK - November, 2013

Change the Weather History Date:

Sunday, November 3, 2013

  Actual Average (KSDA) Record (KSDA)
Temperature  
Mean Temperature 46 °F -  
Max Temperature 57 °F 52 °F 78 °F (2001)
Min Temperature 36 °F 35 °F 8 °F (1991)
Degree Days  
Heating Degree Days 18    
Moisture  
Dew Point 34 °F    
Average Humidity 60    
Maximum Humidity 86    
Minimum Humidity 40    
Precipitation  
Precipitation 0.00 in - - ()
Sea Level Pressure  
Sea Level Pressure 29.95 in    
Wind  
Wind Speed 15 mph (South)    
Max Wind Speed 33 mph    
Max Gust Speed 43 mph    
Visibility 10 miles    
Events      
Averages and records for this station are not official NWS values.
T = Trace of Precipitation, MM = Missing Value Source: NWS Daily Summary

Daily Weather History Graph

Daily Weather History Graph

Search for Another Location

Airport or City:

Trip Planner

Search our weather history database for the weather conditions in past years. The results will help you decide how hot, cold, wet, or windy it might be!

Date:

Astronomy

Nov. 03, 2013 Rise Set
Actual Time 6:56 AM CST 5:17 PM CST
Civil Twilight 6:27 AM CST 5:45 PM CST
Nautical Twilight 5:55 AM CST 6:18 PM CST
Astronomical Twilight 5:23 AM CST 6:50 PM CST
Moon 7:01 AM CST (11/3) 5:32 PM CST (11/3)
Length of Visible Light 11h 18m
Length of Day
10h 21m
New Moon, 0% of the Moon is Illuminated
Nov 3
New Moon
Nov 9
First Quarter
Nov 17
Full
Nov 25
Last Quarter
Dec 2
New

Hourly Weather History & Observations

Time (CST) Temp. Windchill Dew Point Humidity Pressure Visibility Wind Dir Wind Speed Gust Speed Precip Events Conditions
12:15 AM 39.9 °F 34.5 °F 32.0 °F 73% 30.11 in 10.0 mi South 8.1 mph - N/A   Clear
12:35 AM 39.6 °F 34.0 °F 32.0 °F 74% 30.10 in 10.0 mi South 8.1 mph - N/A   Clear
12:55 AM 37.6 °F 31.0 °F 32.0 °F 80% 30.10 in 10.0 mi South 9.2 mph - N/A   Clear
1:15 AM 37.4 °F 31.4 °F 32.0 °F 81% 30.10 in 10.0 mi South 8.1 mph - N/A   Clear
1:35 AM 36.5 °F 30.3 °F 32.0 °F 84% 30.09 in 10.0 mi South 8.1 mph - N/A   Clear
1:55 AM 37.6 °F 31.6 °F 32.0 °F 80% 30.10 in 10.0 mi SSW 8.1 mph - N/A   Clear
1:15 AM 36.5 °F 29.7 °F 32.0 °F 84% 30.09 in 10.0 mi South 9.2 mph - N/A   Clear
1:35 AM 36.5 °F 29.7 °F 32.0 °F 84% 30.09 in 10.0 mi South 9.2 mph - N/A   Clear
1:55 AM 36.0 °F 30.3 °F 32.0 °F 86% 30.08 in 10.0 mi South 6.9 mph - N/A   Clear
2:15 AM 36.9 °F 30.1 °F 32.0 °F 83% 30.08 in 10.0 mi South 9.2 mph - N/A   Clear
2:35 AM 37.4 °F 31.4 °F 32.2 °F 81% 30.08 in 10.0 mi South 8.1 mph - N/A   Clear
2:55 AM 37.6 °F 30.5 °F 32.2 °F 81% 30.08 in 10.0 mi South 10.4 mph - N/A   Clear
3:15 AM 38.7 °F 31.4 °F 32.2 °F 78% 30.08 in 10.0 mi South 11.5 mph - N/A   Clear
3:35 AM 39.2 °F 32.0 °F 32.4 °F 76% 30.08 in 10.0 mi South 11.5 mph - N/A   Clear
3:55 AM 39.0 °F 32.3 °F 32.2 °F 76% 30.07 in 10.0 mi South 10.4 mph - N/A   Clear
4:15 AM 37.8 °F 31.3 °F 32.0 °F 80% 30.05 in 10.0 mi South 9.2 mph - N/A   Clear
4:35 AM 38.7 °F 31.8 °F 32.2 °F 78% 30.05 in 10.0 mi South 10.4 mph - N/A   Clear
4:55 AM 38.3 °F 31.4 °F 32.2 °F 79% 30.05 in 10.0 mi South 10.4 mph - N/A   Clear
5:15 AM 40.8 °F 33.3 °F 32.4 °F 72% 30.04 in 10.0 mi South 13.8 mph - N/A   Clear
5:35 AM 40.1 °F 32.4 °F 32.4 °F 74% 30.04 in 10.0 mi South 13.8 mph - N/A   Clear
5:55 AM 40.3 °F 33.0 °F 32.5 °F 74% 30.03 in 10.0 mi South 12.7 mph 19.6 mph N/A   Clear
6:15 AM 40.3 °F 33.0 °F 32.5 °F 74% 30.03 in 10.0 mi South 12.7 mph - N/A   Clear
6:35 AM 40.5 °F 32.8 °F 32.4 °F 73% 30.02 in 10.0 mi South 13.8 mph 19.6 mph N/A   Clear
6:55 AM 41.0 °F 32.8 °F 32.4 °F 71% 30.02 in 10.0 mi SSE 16.1 mph 20.7 mph N/A   Clear
7:15 AM 41.0 °F 32.8 °F 32.5 °F 72% 30.01 in 10.0 mi SSE 16.1 mph 20.7 mph N/A   Clear
7:35 AM 41.9 °F 33.7 °F 32.7 °F 70% 30.01 in 10.0 mi SSE 17.3 mph 23.0 mph N/A   Clear
7:55 AM 43.0 °F 34.5 °F 33.1 °F 68% 30.01 in 10.0 mi South 19.6 mph 25.3 mph N/A   Clear
8:15 AM 44.6 °F 36.9 °F 33.1 °F 64% 30.00 in 10.0 mi SSE 18.4 mph 26.5 mph N/A   Clear
8:35 AM 45.7 °F 36.9 °F 33.3 °F 62% 30.00 in 10.0 mi South 25.3 mph 32.2 mph N/A   Clear
8:55 AM 46.9 °F - 33.6 °F 60% 29.99 in 10.0 mi South 19.6 mph 31.1 mph N/A   Clear
9:15 AM 48.4 °F - 34.2 °F 58% 29.99 in 10.0 mi South 24.2 mph 33.4 mph N/A   Clear
9:35 AM 50.4 °F - 33.4 °F 52% 29.98 in 10.0 mi South 24.2 mph 35.7 mph N/A   Clear
9:55 AM 51.6 °F - 32.7 °F 49% 29.97 in 10.0 mi South 32.2 mph 35.7 mph N/A   Clear
10:15 AM 52.5 °F - 33.1 °F 48% 29.96 in 10.0 mi South 26.5 mph 40.3 mph N/A   Clear
10:35 AM 53.4 °F - 32.9 °F 46% 29.95 in 10.0 mi South 29.9 mph 40.3 mph N/A   Clear
10:55 AM 53.8 °F - 32.5 °F 45% 29.94 in 10.0 mi South 26.5 mph 36.8 mph N/A   Clear
11:15 AM 54.9 °F - 32.7 °F 43% 29.94 in 10.0 mi South 27.6 mph 35.7 mph N/A   Clear
11:35 AM 55.0 °F - 33.3 °F 44% 29.93 in 10.0 mi South 26.5 mph 36.8 mph N/A   Clear
11:55 AM 55.6 °F - 32.0 °F 41% 29.91 in 10.0 mi South 33.4 mph 40.3 mph N/A   Clear
12:15 PM 55.6 °F - 32.5 °F 42% 29.89 in 10.0 mi South 29.9 mph 42.6 mph N/A   Clear
12:35 PM 56.1 °F - 32.7 °F 41% 29.88 in 10.0 mi South 27.6 mph 34.5 mph N/A   Clear
12:55 PM 56.3 °F - 32.4 °F 40% 29.87 in 10.0 mi South 32.2 mph 36.8 mph N/A   Clear
1:15 PM 55.9 °F - 32.7 °F 41% 29.86 in 10.0 mi South 33.4 mph 41.4 mph N/A   Scattered Clouds
1:35 PM 56.5 °F - 33.6 °F 42% 29.84 in 10.0 mi South 32.2 mph 40.3 mph N/A   Scattered Clouds
1:55 PM 56.8 °F - 33.4 °F 41% 29.84 in 10.0 mi South 28.8 mph 38.0 mph N/A   Clear
2:15 PM 56.7 °F - 34.7 °F 44% 29.84 in 10.0 mi SSE 26.5 mph 33.4 mph N/A   Clear
2:35 PM 56.8 °F - 34.9 °F 44% 29.82 in 10.0 mi South 21.9 mph 36.8 mph N/A   Clear
2:55 PM 57.6 °F - 34.3 °F 42% 29.82 in 10.0 mi South 23.0 mph 32.2 mph N/A   Clear
3:15 PM 57.4 °F - 34.5 °F 42% 29.81 in 10.0 mi SSE 28.8 mph 38.0 mph N/A   Clear
3:35 PM 57.2 °F - 34.3 °F 42% 29.81 in 10.0 mi South 26.5 mph 35.7 mph N/A   Clear
3:55 PM 56.7 °F - 34.9 °F 44% 29.80 in 10.0 mi SSE 21.9 mph 31.1 mph N/A   Clear
4:15 PM 55.9 °F - 35.2 °F 46% 29.79 in 10.0 mi SSE 23.0 mph 33.4 mph N/A   Clear
4:35 PM 55.6 °F - 35.4 °F 47% 29.79 in 10.0 mi SSE 19.6 mph 29.9 mph N/A   Clear
4:55 PM 55.4 °F - 35.2 °F 47% 29.79 in 10.0 mi SSE 23.0 mph 33.4 mph N/A   Clear
5:15 PM 55.0 °F - 35.1 °F 47% 29.79 in 10.0 mi South 19.6 mph 32.2 mph N/A   Clear
7:15 PM 54.0 °F - 35.8 °F 50% 29.81 in 10.0 mi South 19.6 mph 28.8 mph N/A   Clear
7:35 PM 53.8 °F - 36.0 °F 51% 29.81 in 10.0 mi South 16.1 mph 24.2 mph N/A   Scattered Clouds
7:55 PM 54.1 °F - 36.1 °F 51% 29.81 in 10.0 mi South 18.4 mph 24.2 mph N/A   Scattered Clouds
8:15 PM 54.0 °F - 36.1 °F 51% 29.81 in 10.0 mi South 15.0 mph 21.9 mph N/A   Clear
8:35 PM 53.6 °F - 36.5 °F 52% 29.82 in 10.0 mi South 16.1 mph 21.9 mph N/A   Clear
8:55 PM 52.7 °F - 36.5 °F 54% 29.83 in 10.0 mi South 12.7 mph 18.4 mph N/A   Clear
9:15 PM 53.2 °F - 36.7 °F 53% 29.83 in 10.0 mi South 12.7 mph - N/A   Clear
9:35 PM 53.6 °F - 36.3 °F 52% 29.83 in 10.0 mi South 15.0 mph - N/A   Clear
9:55 PM 53.6 °F - 36.5 °F 52% 29.83 in 10.0 mi South 17.3 mph 20.7 mph N/A   Scattered Clouds
10:15 PM 53.6 °F - 36.5 °F 52% 29.83 in 10.0 mi South 16.1 mph 23.0 mph N/A   Mostly Cloudy
10:35 PM 53.6 °F - 36.5 °F 52% 29.82 in 10.0 mi South 17.3 mph 23.0 mph N/A   Scattered Clouds
10:55 PM 53.6 °F - 36.5 °F 52% 29.82 in 10.0 mi South 16.1 mph - N/A   Scattered Clouds